Torna al catalogo

FENGYUN 1C DEB

AttivoPO
NORAD 31072·DEBRIS·🇨🇳 China

Lanciato May 10, 1999 da Taiyuan Satellite Launch Center

Loading…

Prossimi Passaggi (prossime 24 ore)

TLE

AggiornatoSource: Space-Track

Epoca: Sep 13, 2026, 00:37 UTC

1 31072U 99025BFS 26256.02571365  .00001088  00000-0  37822-3 0  9990
2 31072  99.3214 284.2407 0207763  34.3138 327.1262 14.26419864  5381

Traccia FENGYUN 1C DEB in tempo reale con AllMySat

Download on the App Store